Location: Unspecified
(0.0000°N, 0.0000°E)
Time: 12:45:17
(UTC+00:00)

Tiangong 2 - Pass Details

Date: 16 December 2017
Orbit: 386 x 390 km, 42.8° (Epoch: 16 December)

Event Time Altitude Azimuth Distance (km) Brightness Sun altitude
Rises 18:15:32 0° 247° (WSW) 2,258 8.2 -4.5°
Reaches altitude 10° 18:17:55 10° 263° (W) 1,402 5.4 -5.1°
Maximum altitude 18:20:23 21° 315° (NW) 928 3.3 -5.6°
Drops below altitude 10° 18:22:51 10° 7° (N) 1,396 3.6 -6.2°
Enters shadow 18:24:53 - 22° (NNE) 2,114 4.4 -6.7°
